Galveston, TX (77550)

1:22 AM CDT on August 04, 2015 (GMT -0500)
Galveston.com | | Change Station
CLOSE
Current Station
Personal Weather Station
Location: Galveston, TX
Elevation: 36 ft
Nearby Weather Stations

Elev 36 ft 29.31 °N, 94.79 °W | Updated 3 seconds ago

Clear
Clear
84.2 °F
Feels Like 91 °F
N
0.0
Wind Variable Wind from SW
Gusts 6.0 mph

Today
High -- | Low -- °F
--% Chance of Precip.
Yesterday
High -- | Low -- °F
Precip. -- in
6:41 AM 8:09 PM
Waning Gibbous, 80% visible
Pressure 29.92 in
Visibility 10.0 miles
Clouds Clear
Heat Index 91 °F
Dew Point 73 °F
Humidity 70%
Rainfall 0.00 in
Snow Depth Not available.
UV 0 out of 12
Pollen 3.30 out of 12
Air Quality Not available.
Flu Activity Not available.
METAR KGLS 040552Z AUTO 21005KT 10SM CLR 29/24 A2992 RMK AO2 SLP130 T02890239 10306 20289 403390278 51005

More Conditions Fewer Conditions

Pressure 29.92 in
Visibility 10.0 miles
Clouds Clear
Heat Index 91 °F
Dew Point 73 °F
Humidity 70%
Rainfall 0.00 in
Snow Depth Not available.
UV 0 out of 12
Pollen 3.30 out of 12
Air Quality Not available.
Flu Activity Not available.
METAR KGLS 040552Z AUTO 21005KT 10SM CLR 29/24 A2992 RMK AO2 SLP130 T02890239 10306 20289 403390278 51005

More Conditions Fewer Conditions

10-Day Weather Forecast

×

Almanac

Astronomy

Aug. 04, 2015 Rise Set
Actual Time
Civil Twilight
Nautical Twilight
Astronomical Twilight
Moon
Length of Visible Light
Length of Day
Tomorrow will be .
, % of the Moon is Illuminated

Today's Extremes

State Highs State Lows

Community

WunderPhotos

Upload Photos

1,843,870 photos uploaded!

WunderBlogs® & News

Nearby

Air Quality

  Air Quality AQ Index Pollutant
Not available.

Snow Depth

Station Depth Elevation

Earthquake Activity

City Distance Mag. Time & Date
Minimum magnitude displayed is 2.5.

Coastal Water Temperatures

Place Temperature

Stations

Nearby Weather Stations

Station Location Temp. Windchill Dew Point Humidity Wind Precip. Elev Updated Type